Location: Pcim
(49.7500°N, 19.9670°E)
Time: 15:12:16
(UTC+02:00)

NOAA 18 - Pass Details

Date: 29 April 2024
Orbit: 837 x 859 km, 98.9° (Epoch: 21 May)

Event Time Altitude Azimuth Distance (km) Brightness Sun altitude
Exits shadow 00:32:47 10° 257° (WSW) 2,485 7.5 -25.7°
Maximum altitude 00:34:32 12° 276° (W) 2,384 7.6 -25.7°
Drops below altitude 10° 00:36:23 10° 296° (WNW) 2,499 7.9 -25.7°
Sets 00:40:43 0° 328° (NNW) 3,439 9.2 -25.7°
